IW4EMA-3 Weather Reports


Display with metric or nautical units.
time (UTC)temp
F
wind
direction
speed
MPH
gust
MPH
rain 1hr
in
rain 24hr
in
rain mn
in
humidity
%
barometer
mb
20260507132530 74 185 3.0 4.0 0.00 0.00 0.00 45 1012.1
20260507131522 74 211 2.0 4.0 0.00 0.00 0.00 46 1012.2
20260507130529 73 169 3.0 6.0 0.00 0.00 0.00 47 1012.1
20260507125522 73 234 3.0 6.0 0.00 0.00 0.00 45 1012.1
20260507124530 73 235 5.0 7.0 0.00 0.00 0.00 46 1012.2
20260507123521 72 218 2.0 3.0 0.00 0.00 0.00 46 1012.3
20260507122540 72 180 3.0 6.0 0.00 0.00 0.00 48 1012.2
20260507121522 72 253 3.0 6.0 0.00 0.00 0.00 48 1012.1
20260507120530 72 227 4.0 7.0 0.00 0.00 0.00 48 1012.3
20260507115522 73 200 3.0 4.0 0.00 0.00 0.00 47 1012.4
20260507114530 73 241 4.0 7.0 0.00 0.00 0.00 46 1012.5
20260507113522 73 229 2.0 3.0 0.00 0.00 0.00 48 1012.5
20260507112550 72 218 2.0 6.0 0.00 0.00 0.00 46 1012.5
20260507111521 71 223 2.0 3.0 0.00 0.00 0.00 49 1012.8
20260507110529 73 240 1.0 2.0 0.00 0.00 0.00 45 1012.8
20260507105521 72 201 3.0 4.0 0.00 0.00 0.00 49 1012.9
20260507104529 73 334 3.0 6.0 0.00 0.00 0.00 50 1013.0
20260507103522 72 232 2.0 3.0 0.00 0.00 0.00 50 1012.9
20260507102529 73 292 2.0 3.0 0.00 0.00 0.00 50 1013.2
20260507101522 73 256 1.0 2.0 0.00 0.00 0.00 51 1013.1
20260507100540 69 214 2.0 6.0 0.00 0.00 0.00 50 1013.2
20260507095523 70 232 3.0 6.0 0.00 0.00 0.00 49 1013.3
20260507094531 70 238 2.0 3.0 0.00 0.00 0.00 56 1013.3
20260507093522 70 300 0.0 1.0 0.00 0.00 0.00 58 1013.3
20260507092550 68 244 3.0 6.0 0.00 0.00 0.00 62 1013.3
20260507091522 69 218 3.0 4.0 0.00 0.01 0.00 62 1013.2
20260507090530 69 272 1.0 1.0 0.00 0.01 0.00 63 1013.3
20260507085522 68 304 2.0 2.0 0.00 0.01 0.00 64 1013.4
20260507084611 69 254 1.0 3.0 0.00 0.01 0.00 63 1013.2
20260507083522 68 26 1.0 2.0 0.00 0.01 0.00 66 1013.2
20260507082550 69 306 2.0 3.0 0.00 0.02 0.00 65 1013.1
20260507081522 68 335 1.0 2.0 0.00 0.02 0.00 65 1013.0
20260507080550 68 323 2.0 3.0 0.00 0.03 0.00 67 1013.1
20260507075523 67 297 1.0 1.0 0.00 0.03 0.00 66 1013.1
20260507074530 66 322 1.0 3.0 0.00 0.03 0.00 68 1013.1
20260507073522 65 287 1.0 2.0 0.00 0.03 0.00 70 1013.2
20260507072531 64 222 1.0 2.0 0.00 0.03 0.00 72 1012.9
20260507071526 63 196 2.0 3.0 0.00 0.03 0.00 72 1012.9
20260507070610 64 244 1.0 2.0 0.00 0.03 0.00 71 1012.9
20260507065522 63 221 1.0 3.0 0.00 0.04 0.00 71 1012.9
20260507064530 64 269 0.0 1.0 0.00 0.04 0.00 72 1012.6
20260507063522 63 258 1.0 2.0 0.00 0.05 0.00 73 1012.7
20260507062530 62 254 0.0 1.0 0.00 0.06 0.00 79 1012.5
20260507061522 61 206 1.0 1.0 0.00 0.06 0.00 85 1012.5
20260507060530 60 222 1.0 2.0 0.00 0.06 0.00 85 1012.4
20260507055522 60 0.0 0.0 0.00 0.06 0.00 87 1012.4
20260507054531 59 0.0 0.0 0.00 0.06 0.00 88 1012.4
20260507053524 58 0.0 0.0 0.00 0.06 0.00 89 1012.0
20260507050723 53 202 1.0 1.0 0.00 0.11 0.00 94 1011.8
20260507042846 51 0.0 0.0 0.00 0.27 0.00 95 1011.4
20260507041839 51 228 1.0 1.0 0.00 0.28 0.00 95 1011.5
20260507040827 51 0.0 0.0 0.00 0.29 0.00 95 1011.2
20260507035818 51 0.0 0.0 0.00 0.29 0.00 94 1011.3
20260507034826 51 0.0 0.0 0.00 0.29 0.00 94 1011.1
20260507033818 51 0.0 0.0 0.00 0.29 0.00 93 1011.1
20260507032826 51 0.0 0.0 0.00 0.29 0.00 93 1011.1
20260507031838 51 0.0 0.0 0.00 0.30 0.00 93 1011.0
20260507021732 53 0.0 0.0 0.00 0.34 0.00 90 1011.0
20260507020722 54 0.0 0.0 0.00 0.37 0.00 88 1011.2
20260507020258 54 0.0 0.0 0.00 0.39 0.00 88 1011.1
20260507015818 54 0.0 0.0 0.00 0.40 0.00 87 1011.1
20260507015018 54 0.0 0.0 0.00 0.44 0.00 87 1011.0
20260507014638 54 0.0 0.0 0.00 0.46 0.00 87 1010.9
20260507013626 54 193 2.0 2.0 0.00 0.48 0.00 87 1011.0
20260507012618 54 203 1.0 1.0 0.00 0.48 0.00 87 1010.9
20260507011646 55 213 2.0 3.0 0.00 0.49 0.00 86 1010.6
20260507010531 56 235 1.0 1.0 0.00 0.49 0.00 85 1010.6
20260507005439 56 235 0.0 1.0 0.00 0.49 0.00 84 1010.5
20260507004931 56 235 0.0 1.0 0.00 0.49 0.00 84 1010.6
20260507002426 56 235 0.0 1.0 0.00 0.49 0.00 82 1010.7
20260507000427 57 0.0 0.0 0.00 0.49 0.00 79 1010.6
20260506235418 58 221 1.0 1.0 0.00 0.49 0.00 78 1010.8
20260506234427 57 219 2.0 2.0 0.00 0.49 0.00 79 1010.7
20260506233419 57 219 1.0 2.0 0.00 0.49 0.00 79 1010.6
20260506232446 58 238 1.0 1.0 0.00 0.49 0.00 78 1010.7
20260506231419 58 228 0.0 1.0 0.00 0.49 0.00 77 1010.8
20260506230426 58 222 3.0 4.0 0.00 0.49 0.00 77 1010.6
20260506225419 57 219 4.0 6.0 0.00 0.49 0.00 80 1010.6
20260506224426 57 221 3.0 3.0 0.00 0.49 0.00 83 1010.7
20260506223418 57 199 2.0 3.0 0.00 0.49 0.00 83 1010.5
20260506222446 57 200 1.0 2.0 0.00 0.49 0.00 82 1010.6
20260506221419 57 190 1.0 1.0 0.00 0.49 0.00 82 1010.6
20260506220427 58 0.0 0.0 0.00 0.49 0.00 82 1010.8
20260506215439 59 250 1.0 2.0 0.00 0.49 0.49 79 1010.8
20260506214426 59 211 4.0 6.0 0.00 0.49 0.49 80 1010.5
20260506213433 59 219 3.0 3.0 0.00 0.49 0.49 81 1010.6
20260506212427 59 195 4.0 6.0 0.00 0.49 0.49 82 1010.4
20260506211418 59 194 5.0 7.0 0.00 0.49 0.49 83 1010.2
20260506210427 59 196 4.0 6.0 0.00 0.49 0.49 83 1010.2
20260506205419 60 179 4.0 6.0 0.00 0.49 0.49 81 1010.1
20260506204426 60 163 3.0 4.0 0.00 0.49 0.49 81 1010.2
20260506203418 60 160 3.0 4.0 0.00 0.49 0.49 83 1009.9
20260506202426 60 191 3.0 4.0 0.00 0.49 0.49 83 1009.8
20260506201419 61 204 3.0 7.0 0.00 0.49 0.49 84 1009.8
20260506200427 61 175 4.0 6.0 0.00 0.49 0.49 83 1010.0
20260506195419 61 194 4.0 6.0 0.00 0.49 0.49 84 1009.7
20260506194427 61 178 4.0 7.0 0.00 0.49 0.49 85 1009.6
20260506193419 62 184 4.0 6.0 0.00 0.49 0.49 84 1009.2
20260506192428 62 181 4.0 6.0 0.00 0.49 0.49 84 1009.4
20260506191418 63 195 2.0 2.0 0.00 0.49 0.49 85 1009.2
20260506190506 63 181 4.0 6.0 0.00 0.49 0.49 85 1009.0
20260506185418 63 174 5.0 7.0 0.00 0.49 0.49 84 1008.8
20260506184426 63 185 5.0 7.0 0.00 0.49 0.49 84 1008.7
20260506183438 63 199 6.0 10.0 0.00 0.49 0.49 85 1008.8
20260506182426 63 190 6.0 9.0 0.00 0.49 0.49 85 1008.5
20260506181419 64 189 4.0 6.0 0.00 0.49 0.49 85 1008.5
20260506180427 64 189 3.0 4.0 0.00 0.49 0.49 84 1008.4
20260506175418 64 135 2.0 3.0 0.00 0.49 0.49 83 1008.5
20260506174426 64 182 4.0 6.0 0.00 0.49 0.49 83 1008.3
20260506173418 65 206 5.0 7.0 0.00 0.49 0.49 82 1008.1
20260506172427 65 205 4.0 6.0 0.00 0.49 0.49 83 1008.1
20260506171459 65 193 2.0 2.0 0.00 0.49 0.49 83 1008.1
20260506170427 66 155 2.0 4.0 0.00 0.49 0.49 83 1008.0
20260506165419 66 161 3.0 3.0 0.00 0.49 0.49 84 1007.9
20260506164426 66 158 2.0 3.0 0.00 0.49 0.49 83 1008.0
20260506163458 67 162 1.0 4.0 0.00 0.49 0.49 82 1007.9
20260506162446 66 203 2.0 3.0 0.00 0.49 0.49 82 1008.0
20260506161419 67 174 3.0 6.0 0.00 0.49 0.49 82 1008.0
20260506160428 67 167 3.0 4.0 0.00 0.49 0.49 82 1008.1
20260506155419 67 191 5.0 7.0 0.00 0.49 0.49 81 1007.9
20260506154427 67 209 5.0 7.0 0.00 0.49 0.49 80 1008.0
20260506153419 67 183 6.0 9.0 0.00 0.49 0.49 80 1007.9
20260506152427 67 146 8.0 10.0 0.00 0.49 0.49 79 1008.0
20260506151440 67 145 4.0 6.0 0.00 0.49 0.49 80 1008.0
20260506150426 67 207 6.0 8.0 0.00 0.49 0.49 80 1008.0
20260506145419 68 166 3.0 6.0 0.00 0.49 0.49 80 1007.9
20260506144426 68 182 4.0 6.0 0.00 0.49 0.49 82 1008.2
20260506143419 68 195 4.0 8.0 0.00 0.49 0.49 82 1008.2
20260506142427 67 168 4.0 8.0 0.00 0.49 0.49 83 1008.2
20260506141419 67 186 6.0 8.0 0.00 0.49 0.49 84 1008.3
20260506140426 66 190 3.0 7.0 0.00 0.49 0.49 85 1008.3
20260506135420 66 213 5.0 8.0 0.00 0.49 0.49 85 1008.3
20260506134428 66 197 4.0 7.0 0.00 0.49 0.49 86 1008.6
20260506133419 65 149 5.0 8.0 0.00 0.49 0.49 88 1008.6